Погода в Восходе

Россия / Свердловская область     56°43′38″N   62°50′39″E
темп.,
°C
ветер,
м/с
пор.,
м/с
влажн.,
%
обл.,
%
осадки,
мм/ч
давл.,
гПа
погр.,
м
24 июля, сб
сб2423:00+18сз2370100 0.0 100363
02:00+16ссз2379100 0.0 100449
05:00+15ссв2281100 0.0 100436
08:00+18з0172100 0.0 1004262
11:00+22с1157100 0.0 10041211
14:00+25ссз224410 0.1 10031859
17:00+24сз4446100 0.1 10041024
20:00+21св225999 0.0 100431
25 июля, вс
вс2523:00+16зсз227557 0.0 100516
02:00+16сз2274100 0.0 100625
05:00+16сз366576 0.0 1007151
08:00+17сз5771100 0.0 1008474
11:00+16ссз678476 0.7 1010648
14:00+16с5106957 0.3 1012904
17:00+19сз673877 0.3 10131756
20:00+17ссз224743 0.0 101333
26 июля, пн
пн2623:00+12зсз411605 0.0 1015193
02:00+10сз497124 0.0 1016174
05:00+8зсз49825 0.0 1017164
08:00+14сз595731 0.0 1018662
11:00+15зсз5855100 0.0 1017728
14:00+17сз794584 0.0 10171453
17:00+18сз6940100 0.0 10162316
20:00+16зсз595284 0.0 1016830
27 июля, вт
вт2723:00+15з41056100 0.0 1016366
02:00+13з496392 0.0 1015255
05:00+11зюз477785 0.0 1014136
08:00+15з5106671 0.0 1013507
11:00+17з61066100 0.2 1012816
14:00+14зюз61489100 1.4 1012819
17:00+17з687724 2.1 10111005
20:00+15зсз49875 1.1 1010346
28 июля, ср
ср2823:00+11сз3393100 1.1 101143
02:00+9ссз369518 0.0 101299
05:00+9сз3491100 0.0 101272
08:00+11сз2689100 0.0 1013233
11:00+16ссз355326 0.0 10131041
14:00+20сз343525 0.0 10122173
17:00+21зсз353420 0.0 10112315
20:00+18зюз114957 0.0 101017